Time,TemperatureF,DewpointF,PressureIn,WindDirection,WindDirectionDegrees,WindSpeedMPH,WindSpeedGustMPH,Humidity,HourlyPrecipIn,Conditions,Clouds,dailyrainin,SolarRadiationWatts/m^2,SoftwareType,DateUTC
2013-06-09 00:02:00,77.0,59.0,-100.00,SE,133,6.0,12.0,54,0.00,,,-99.99,0.000000,,2013-06-09 05:02:00,
2013-06-09 00:32:00,76.0,60.0,-100.00,SE,133,6.0,11.0,57,0.00,,,0.00,0.000000,,2013-06-09 05:32:00,
2013-06-09 00:42:00,76.0,60.0,-100.00,SE,133,6.0,11.0,57,0.00,,,0.00,0.000000,,2013-06-09 05:42:00,
2013-06-09 00:52:00,76.0,60.0,-100.00,SE,133,6.0,11.0,57,0.00,,,0.00,0.000000,,2013-06-09 05:52:00,
2013-06-09 01:02:00,76.0,60.0,-100.00,SE,133,6.0,11.0,57,0.00,,,0.00,0.000000,,2013-06-09 06:02:00,
2013-06-09 01:32:00,75.0,60.0,-100.00,SE,138,6.0,11.0,60,0.00,,,0.00,0.000000,,2013-06-09 06:32:00,
2013-06-09 01:42:00,75.0,60.0,-100.00,SE,138,6.0,11.0,60,0.00,,,0.00,0.000000,,2013-06-09 06:42:00,
2013-06-09 01:52:00,75.0,60.0,-100.00,SE,138,6.0,11.0,60,0.00,,,0.00,0.000000,,2013-06-09 06:52:00,
2013-06-09 02:02:00,75.0,60.0,-100.00,SE,138,6.0,11.0,60,0.00,,,0.00,0.000000,,2013-06-09 07:02:00,
2013-06-09 02:32:00,74.0,63.0,-100.00,SE,145,6.0,11.0,69,0.00,,,0.00,0.000000,,2013-06-09 07:32:00,
2013-06-09 02:42:00,74.0,63.0,-100.00,SE,145,6.0,11.0,69,0.00,,,0.00,0.000000,,2013-06-09 07:42:00,
2013-06-09 02:52:00,74.0,63.0,-100.00,SE,145,6.0,11.0,69,0.00,,,0.00,0.000000,,2013-06-09 07:52:00,
2013-06-09 03:02:00,74.0,63.0,-100.00,SE,145,6.0,11.0,69,0.00,,,0.00,0.000000,,2013-06-09 08:02:00,
2013-06-09 03:32:00,75.0,67.0,-100.00,SSE,153,8.0,14.0,75,0.00,,,0.00,0.000000,,2013-06-09 08:32:00,
2013-06-09 03:42:00,75.0,67.0,-100.00,SSE,153,8.0,14.0,75,0.00,,,0.00,0.000000,,2013-06-09 08:42:00,
2013-06-09 03:53:00,75.0,67.0,-100.00,SSE,153,8.0,14.0,75,0.00,,,0.00,0.000000,,2013-06-09 08:53:00,
2013-06-09 04:02:00,75.0,67.0,-100.00,SSE,153,8.0,14.0,75,0.00,,,0.00,0.000000,,2013-06-09 09:02:00,
2013-06-09 04:33:00,74.0,67.0,-100.00,SSE,152,8.0,15.0,79,0.00,,,0.00,0.000000,,2013-06-09 09:33:00,
2013-06-09 04:43:00,74.0,67.0,-100.00,SSE,152,8.0,15.0,79,0.00,,,0.00,0.000000,,2013-06-09 09:43:00,
2013-06-09 04:52:00,74.0,67.0,-100.00,SSE,152,8.0,15.0,79,0.00,,,0.00,0.000000,,2013-06-09 09:52:00,
2013-06-09 05:03:00,74.0,67.0,-100.00,SSE,152,8.0,15.0,79,0.00,,,0.00,0.000000,,2013-06-09 10:03:00,
2013-06-09 05:32:00,74.0,68.0,-100.00,SSE,157,8.0,15.0,83,0.00,,,0.00,0.000000,,2013-06-09 10:32:00,
2013-06-09 05:43:00,74.0,68.0,-100.00,SSE,157,8.0,15.0,83,0.00,,,0.00,0.000000,,2013-06-09 10:43:00,
2013-06-09 05:52:00,74.0,68.0,-100.00,SSE,157,8.0,15.0,83,0.00,,,0.00,0.000000,,2013-06-09 10:52:00,
2013-06-09 06:02:00,74.0,68.0,-100.00,SSE,157,8.0,15.0,83,0.00,,,0.00,0.000000,,2013-06-09 11:02:00,
2013-06-09 06:32:00,74.0,69.0,-100.00,SSE,162,9.0,15.0,85,0.00,,,0.00,0.000000,,2013-06-09 11:32:00,
2013-06-09 06:42:00,74.0,69.0,-100.00,SSE,162,9.0,15.0,85,0.00,,,0.00,0.000000,,2013-06-09 11:42:00,
2013-06-09 06:53:00,74.0,69.0,-100.00,SSE,162,9.0,15.0,85,0.00,,,0.00,0.000000,,2013-06-09 11:53:00,
2013-06-09 07:02:00,74.0,69.0,-100.00,SSE,162,9.0,15.0,85,0.00,,,0.00,0.000000,,2013-06-09 12:02:00,
2013-06-09 07:32:00,71.0,66.0,-100.00,NW,317,10.0,18.0,85,0.00,,,0.00,0.000000,,2013-06-09 12:32:00,
2013-06-09 07:42:00,71.0,66.0,-100.00,NW,317,10.0,18.0,85,0.00,,,0.00,0.000000,,2013-06-09 12:42:00,
2013-06-09 07:52:00,71.0,66.0,-100.00,NW,317,10.0,18.0,85,0.00,,,0.00,0.000000,,2013-06-09 12:52:00,
2013-06-09 08:02:00,71.0,66.0,-100.00,NW,317,10.0,18.0,85,0.00,,,0.00,0.000000,,2013-06-09 13:02:00,
2013-06-09 08:32:00,68.0,66.0,-100.00,NE,48,7.0,17.0,93,0.06,,,0.06,8.000000,,2013-06-09 13:32:00,
2013-06-09 08:42:00,68.0,66.0,-100.00,NE,48,7.0,17.0,93,0.06,,,0.06,8.000000,,2013-06-09 13:42:00,
2013-06-09 08:52:00,68.0,66.0,-100.00,NE,48,7.0,17.0,93,0.06,,,0.06,8.000000,,2013-06-09 13:52:00,
2013-06-09 09:02:00,68.0,66.0,-100.00,NE,48,7.0,17.0,93,0.06,,,0.06,8.000000,,2013-06-09 14:02:00,
2013-06-09 09:32:00,69.0,67.0,-100.00,NE,46,4.0,11.0,93,0.01,,,0.07,64.000000,,2013-06-09 14:32:00,
2013-06-09 09:43:00,69.0,67.0,-100.00,NE,46,4.0,11.0,93,0.01,,,0.07,64.000000,,2013-06-09 14:43:00,
2013-06-09 09:52:00,69.0,67.0,-100.00,NE,46,4.0,11.0,93,0.01,,,0.07,64.000000,,2013-06-09 14:52:00,
2013-06-09 10:02:00,69.0,67.0,-100.00,NE,46,4.0,11.0,93,0.01,,,0.07,64.000000,,2013-06-09 15:02:00,
2013-06-09 10:33:00,70.0,67.0,-100.00,SE,136,7.0,15.0,89,0.00,,,0.07,106.000000,,2013-06-09 15:33:00,
2013-06-09 10:43:00,70.0,67.0,-100.00,SE,136,7.0,15.0,89,0.00,,,0.07,106.000000,,2013-06-09 15:43:00,
2013-06-09 10:53:00,70.0,67.0,-100.00,SE,136,7.0,15.0,89,0.00,,,0.07,106.000000,,2013-06-09 15:53:00,
2013-06-09 11:03:00,70.0,67.0,-100.00,SE,136,7.0,15.0,89,0.00,,,0.07,106.000000,,2013-06-09 16:03:00,
2013-06-09 11:33:00,74.0,67.0,-100.00,NNW,344,7.0,15.0,80,0.00,,,0.07,277.000000,,2013-06-09 16:33:00,
2013-06-09 11:43:00,74.0,67.0,-100.00,NNW,344,7.0,15.0,80,0.00,,,0.07,277.000000,,2013-06-09 16:43:00,
2013-06-09 11:53:00,74.0,67.0,-100.00,NNW,344,7.0,15.0,80,0.00,,,0.07,277.000000,,2013-06-09 16:53:00,
2013-06-09 12:02:00,74.0,67.0,-100.00,NNW,344,7.0,15.0,80,0.00,,,0.07,277.000000,,2013-06-09 17:02:00,
2013-06-09 12:32:00,80.0,68.0,-100.00,North,356,7.0,15.0,67,0.00,,,0.07,849.000000,,2013-06-09 17:32:00,
2013-06-09 12:42:00,80.0,68.0,-100.00,North,356,7.0,15.0,67,0.00,,,0.07,849.000000,,2013-06-09 17:42:00,
2013-06-09 12:52:00,80.0,68.0,-100.00,North,356,7.0,15.0,67,0.00,,,0.07,849.000000,,2013-06-09 17:52:00,
2013-06-09 13:02:00,80.0,68.0,-100.00,North,356,7.0,15.0,67,0.00,,,0.07,849.000000,,2013-06-09 18:02:00,
2013-06-09 13:33:00,83.0,68.0,-100.00,NNW,341,6.0,12.0,61,0.00,,,0.07,998.000000,,2013-06-09 18:33:00,
2013-06-09 13:42:00,83.0,68.0,-100.00,NNW,341,6.0,12.0,61,0.00,,,0.07,998.000000,,2013-06-09 18:42:00,
2013-06-09 13:52:00,83.0,68.0,-100.00,NNW,341,6.0,12.0,61,0.00,,,0.07,998.000000,,2013-06-09 18:52:00,
2013-06-09 14:02:00,83.0,68.0,-100.00,NNW,341,6.0,12.0,61,0.00,,,0.07,998.000000,,2013-06-09 19:02:00,
2013-06-09 14:32:00,86.0,68.0,-100.00,North,358,5.0,11.0,55,0.00,,,0.07,1042.000000,,2013-06-09 19:32:00,
2013-06-09 14:43:00,86.0,68.0,-100.00,North,358,5.0,11.0,55,0.00,,,0.07,1042.000000,,2013-06-09 19:43:00,
2013-06-09 14:52:00,86.0,68.0,-100.00,North,358,5.0,11.0,55,0.00,,,0.07,1042.000000,,2013-06-09 19:52:00,
2013-06-09 15:02:00,86.0,68.0,-100.00,North,358,5.0,11.0,55,0.00,,,0.07,1042.000000,,2013-06-09 20:02:00,
2013-06-09 15:32:00,88.0,68.0,-100.00,NNW,348,6.0,10.0,51,0.00,,,0.07,1013.000000,,2013-06-09 20:32:00,
2013-06-09 15:42:00,88.0,68.0,-100.00,NNW,348,6.0,10.0,51,0.00,,,0.07,1013.000000,,2013-06-09 20:42:00,
2013-06-09 15:52:00,88.0,68.0,-100.00,NNW,348,6.0,10.0,51,0.00,,,0.07,1013.000000,,2013-06-09 20:52:00,
2013-06-09 16:02:00,88.0,68.0,-100.00,NNW,348,6.0,10.0,51,0.00,,,0.07,1013.000000,,2013-06-09 21:02:00,
2013-06-09 16:33:00,88.0,66.0,-100.00,North,7,5.0,11.0,49,0.00,,,0.07,931.000000,,2013-06-09 21:33:00,
2013-06-09 16:44:00,88.0,66.0,-100.00,North,7,5.0,11.0,49,0.00,,,0.07,931.000000,,2013-06-09 21:44:00,
2013-06-09 16:53:00,88.0,66.0,-100.00,North,7,5.0,11.0,49,0.00,,,0.07,931.000000,,2013-06-09 21:53:00,
2013-06-09 17:02:00,88.0,66.0,-100.00,North,7,5.0,11.0,49,0.00,,,0.07,931.000000,,2013-06-09 22:02:00,
2013-06-09 17:33:00,89.0,66.0,-100.00,NW,320,4.0,9.0,47,0.00,,,0.07,591.000000,,2013-06-09 22:33:00,
2013-06-09 17:42:00,89.0,66.0,-100.00,NW,320,4.0,9.0,47,0.00,,,0.07,591.000000,,2013-06-09 22:42:00,
2013-06-09 17:52:00,89.0,66.0,-100.00,NW,320,4.0,9.0,47,0.00,,,0.07,591.000000,,2013-06-09 22:52:00,
2013-06-09 18:02:00,89.0,66.0,-100.00,NW,320,4.0,9.0,47,0.00,,,0.07,591.000000,,2013-06-09 23:02:00,
2013-06-09 18:32:00,89.0,66.0,-100.00,NNE,24,4.0,8.0,47,0.00,,,0.07,438.000000,,2013-06-09 23:32:00,
2013-06-09 18:43:00,89.0,66.0,-100.00,NNE,24,4.0,8.0,47,0.00,,,0.07,438.000000,,2013-06-09 23:43:00,
2013-06-09 18:52:00,89.0,66.0,-100.00,NNE,24,4.0,8.0,47,0.00,,,0.07,438.000000,,2013-06-09 23:52:00,
2013-06-09 19:02:00,89.0,66.0,-100.00,NNE,24,4.0,8.0,47,0.00,,,0.07,438.000000,,2013-06-10 00:02:00,
2013-06-09 19:32:00,88.0,65.0,-100.00,NNE,13,4.0,9.0,47,0.00,,,0.07,355.000000,,2013-06-10 00:32:00,
2013-06-09 19:42:00,88.0,65.0,-100.00,NNE,13,4.0,9.0,47,0.00,,,0.07,355.000000,,2013-06-10 00:42:00,
2013-06-09 19:52:00,88.0,65.0,-100.00,NNE,13,4.0,9.0,47,0.00,,,0.07,355.000000,,2013-06-10 00:52:00,
2013-06-09 20:02:00,88.0,65.0,-100.00,NNE,13,4.0,9.0,47,0.00,,,0.07,355.000000,,2013-06-10 01:02:00,
2013-06-09 20:32:00,84.0,65.0,-100.00,ENE,67,1.0,6.0,53,0.00,,,0.07,142.000000,,2013-06-10 01:32:00,
2013-06-09 20:43:00,84.0,65.0,-100.00,ENE,67,1.0,6.0,53,0.00,,,0.07,142.000000,,2013-06-10 01:43:00,
2013-06-09 20:52:00,84.0,65.0,-100.00,ENE,67,1.0,6.0,53,0.00,,,0.07,142.000000,,2013-06-10 01:52:00,
2013-06-09 21:02:00,84.0,65.0,-100.00,ENE,67,1.0,6.0,53,0.00,,,0.07,142.000000,,2013-06-10 02:02:00,
2013-06-09 21:32:00,76.0,66.0,-100.00,SSE,149,3.0,4.0,72,0.00,,,0.07,7.000000,,2013-06-10 02:32:00,
2013-06-09 21:42:00,76.0,66.0,-100.00,SSE,149,3.0,4.0,72,0.00,,,0.07,7.000000,,2013-06-10 02:42:00,
2013-06-09 21:52:00,76.0,66.0,-100.00,SSE,149,3.0,4.0,72,0.00,,,0.07,7.000000,,2013-06-10 02:52:00,
2013-06-09 22:02:00,76.0,66.0,-100.00,SSE,149,3.0,4.0,72,0.00,,,0.07,7.000000,,2013-06-10 03:02:00,
2013-06-09 22:33:00,74.0,66.0,-100.00,SSE,151,2.0,6.0,75,0.00,,,0.07,0.000000,,2013-06-10 03:33:00,
2013-06-09 22:43:00,74.0,66.0,-100.00,SSE,151,2.0,6.0,75,0.00,,,0.07,0.000000,,2013-06-10 03:43:00,
2013-06-09 22:53:00,74.0,66.0,-100.00,SSE,151,2.0,6.0,75,0.00,,,0.07,0.000000,,2013-06-10 03:53:00,
2013-06-09 23:03:00,74.0,66.0,-100.00,SSE,151,2.0,6.0,75,0.00,,,0.07,0.000000,,2013-06-10 04:03:00,
2013-06-09 23:33:00,76.0,67.0,-100.00,SSE,151,5.0,7.0,73,0.00,,,0.07,0.000000,,2013-06-10 04:33:00,
2013-06-09 23:42:00,76.0,67.0,-100.00,SSE,151,5.0,7.0,73,0.00,,,0.07,0.000000,,2013-06-10 04:42:00,
2013-06-09 23:53:00,76.0,67.0,-100.00,SSE,151,5.0,7.0,73,0.00,,,0.07,0.000000,,2013-06-10 04:53:00,